World > North America > United States > South Carolina > Tigerville

Tigerville, SC Hourly Weather Conditions

Feedback E-mail the Weather

Quick WX

Tigerville, SC Weather Maps

°F °C°F °C
Tigerville Weather Map
UTC Time: 12/1/2022, 13:31
Your Time:

Tigerville, SC Regional Weather

Expires:202212011400;;120422
ASUS42 KCAE 011310
RWRCAE
REGIONAL WEATHER ROUNDUP
NATIONAL WEATHER SERVICE COLUMBIA SC
800 AM EST THU DEC 01 2022

NOTE: "FAIR" INDICATES FEW OR NO CLOUDS BELOW 12,000 FEET WITH NO
SIGNIFICANT WEATHER AND/OR OBSTRUCTIONS TO VISIBILITY.

NOT ALL STATIONS ARE QUALITY CONTROLLED BY THE NATIONAL 
WEATHER SERVICE. USE DATA WITH CAUTION...ESPECIALLY 
DEWPOINT OBSERVATIONS.


SCZ001>059-115-116-135>137-GAZ040-063>065-077-011400-
...UPSTATE SOUTH CAROLINA...
  
CITY           SKY/WX    TMP DP  RH WIND       PRES   REMARKS
ANDERSON       CLEAR     31  24  75 CALM      30.41R                  
LIBERTY        CLEAR     26  24  92 MISG      30.39R                  
SPARTANBURG    CLEAR     32  16  51 CALM      30.39R                  
CLEMSON        CLEAR     35  19  52 SW3       30.41R                  
GREENVILLE     CLEAR     41  10  28 N14       30.40R                  
GREENWOOD      CLEAR     28  23  81 N3        30.43R                  
GREER          CLEAR     36  13  38 NE5       30.40R WCI  32          
ROCK HILL      CLEAR     37  20  50 N5        30.40R WCI  33          
LAURENS        CLEAR     34  21  60 CALM      30.42R                  


...CENTRAL SOUTH CAROLINA...
  
CITY           SKY/WX    TMP DP  RH WIND       PRES   REMARKS
COLUMBIA APT   PTCLDY    32  28  85 CALM      30.43R                  
COLUMBIA OWENS CLEAR     32  29  88 CALM      30.44R                  
MCENTIRE ANGB  PTCLDY    29  28  99 CALM      30.41R                  
ORANGEBURG     CLEAR     37  30  75 CALM      30.43R                  
SUMTER SHAW    CLEAR     36  25  65 N3        30.40R                  
AIKEN          FAIR      31  29  90 CALM      30.42R                  
BARNWELL       FAIR      34  30  86 CALM      30.42R                  
MANNING        FAIR      32  28  86 CALM      30.43R                  
CAMDEN         FAIR      30  27  86 CALM      30.43R                  
LANCASTER      CLEAR     30  25  80 CALM      30.40R                  
WINNSBORO      CLEAR     32  25  74 CALM      30.41R                  


...EASTERN AND COASTAL SOUTH CAROLINA...
  
CITY           SKY/WX    TMP DP  RH WIND       PRES   REMARKS
MYRTLE BEACH   CLEAR     40  29  64 NW3       30.42R                  
N MYRTLE BCH   CLEAR     39  29  67 CALM      30.40R                  
CONWAY         FAIR      32  32 100 CALM      30.41R                  
MARION         FAIR      37  18  44 CALM      30.41R                  
HARTSVILLE     FAIR      30  27  86 CALM      30.40R                  
FLORENCE       CLEAR     37  26  64 CALM      30.41R                  
DARLINGTON     CLEAR     34  30  85 NW3       30.41R                  
CHARLESTON APT CLEAR     44  27  51 NE6       30.42R                  
MOUNT PLEASANT FAIR      41  34  75 CALM      30.41R                  
WALTERBORO     CLEAR     34  32  93 N3        30.43R                  
BEAUFORT       CLEAR     44  30  57 N8        30.41R                  
HILTON HEAD    CLEAR     48  30  49 NE14      30.41R                  


...EASTERN GEORGIA...
  
CITY           SKY/WX    TMP DP  RH WIND       PRES   REMARKS
AUGUSTA BUSH F CLEAR     29  29 100 SE3       30.43R                  
AUGUSTA DANIEL CLEAR     40  25  55 N7        30.42R                  
THOMSON        CLEAR     30  29  96 CALM      30.42R                  
WASHINGTON     FAIR      30  26  85 N3        30.42R                  
CLAXTON        FAIR      36  35  96 CALM      30.43R FOG              
SYLVANIA       CLEAR     38  32  81 CALM      30.42R                  
STATESBORO     CLEAR     36  32  86 CALM      30.43R                  
SAVANNAH       CLEAR     46  32  58 N3        30.41R                  


...SOUTHERN NORTH CAROLINA...
  
CITY           SKY/WX    TMP DP  RH WIND       PRES   REMARKS
CHARLOTTE      MOCLDY    35  21  56 N8        30.39R WCI  29          
MONROE         PTCLDY    37  17  44 N6        30.38R WCI  32          
WADESBORO      PTCLDY    31  24  74 CALM      30.41R                  
ROCKINGHAM     PTCLDY    37  19  47 N7        30.39R WCI  32          
RUTHERFORDTON  CLEAR     34  12  40 N8        30.41R WCI  27          
ASHEVILLE      CLEAR     28  15  58 N21G33    30.40R WCI  15          

$$
  

SKY/WX - Weather  TMP - Temperature  DP - Dew Point  RH - Humidity
WIND - Wind Direction/Speed PRES - Barometric Pressure VSB - Visibility
WCI - Wind Chill Index E13G22 Wind - East Wind 13 mph/Gusts of 22 mph

Trending Headlines

Trending Entertainment Headlines

Tigerville Radar Loop

Use the map search tool if you want to place a location marker on the radar map...

Tigerville Quick Facts

National Two Day Weather Forecast


E-mail the Tigerville Weather Forecast

Voice your opinion or tell us about page issues...